START_TIME,STEP,MOV.,M15,t_acc.,M20,t_acc.
1979-03-10 12:00:41.420 ,5,1,0.,24.0,0.,24.0
1979-03-10 12:01:05.420 ,6,1,0.,24.0,0.,24.0
1979-03-10 12:01:29.420 ,2,1,0.,24.0,0.,24.0
1979-03-10 12:01:53.420 ,1,1,0.,24.0,0.,24.0
1979-03-10 12:02:17.420 ,5,1,0.,24.0,0.,24.0
1979-03-10 12:02:41.420 ,6,1,0.,24.0,0.,24.0
1979-03-10 12:03:05.420 ,2,1,0.,24.0,0.,24.0
1979-03-10 12:03:29.420 ,1,1,0.,24.0,0.,24.0
1979-03-10 12:03:53.420 ,5,1,0.,24.0,0.,24.0
1979-03-10 12:04:17.420 ,6,1,0.,24.0,0.,24.0
1979-03-10 12:04:41.420 ,2,1,0.,24.0,0.,24.0
1979-03-10 12:05:05.420 ,1,1,0.,24.0,0.,24.0
1979-03-10 12:05:29.420 ,5,1,0.,24.0,0.,24.0
1979-03-10 12:05:53.420 ,6,1,0.,24.0,0.,24.0
1979-03-10 12:06:17.420 ,2,1,0.,24.0,0.,24.0
1979-03-10 12:06:41.420 ,1,1,0.,24.0,0.,24.0
1979-03-10 12:07:05.420 ,5,1,0.,24.0,0.,24.0
1979-03-10 12:07:29.420 ,6,1,0.,24.0,0.,24.0
1979-03-10 12:07:53.420 ,2,1,0.,24.0,0.,24.0
1979-03-10 12:08:17.420 ,1,1,0.,24.0,0.,24.0
1979-03-10 12:08:41.420 ,5,1,0.,24.0,0.,24.0
1979-03-10 12:09:05.420 ,6,1,0.,24.0,0.,24.0
1979-03-10 12:09:29.420 ,2,1,0.,24.0,0.,24.0
1979-03-10 12:09:53.420 ,1,1,0.,24.0,0.,24.0
1979-03-10 12:10:17.420 ,5,1,0.,24.0,0.,24.0
1979-03-10 12:10:41.420 ,6,1,0.,24.0,0.,24.0
1979-03-10 12:11:05.420 ,2,1,0.,24.0,0.,24.0
1979-03-10 12:11:29.420 ,1,1,0.,24.0,0.,24.0
1979-03-10 12:11:53.420 ,5,1,0.,24.0,0.,24.0
1979-03-10 12:12:17.420 ,6,1,0.,24.0,0.,24.0
1979-03-10 12:12:41.420 ,2,1,0.,24.0,0.,24.0
1979-03-10 12:13:05.420 ,1,1,0.,24.0,0.,24.0
1979-03-10 12:13:29.420 ,5,1,0.,24.0,0.,24.0
1979-03-10 12:13:53.420 ,6,1,0.,24.0,0.,24.0
1979-03-10 12:14:17.420 ,2,1,0.,24.0,0.,24.0
1979-03-10 12:14:41.420 ,1,1,0.,24.0,0.,24.0
1979-03-10 12:15:05.420 ,5,1,0.,24.0,0.,24.0
1979-03-10 12:15:29.420 ,6,1,0.,24.0,0.,24.0
1979-03-10 12:15:53.420 ,2,1,0.,24.0,0.,24.0
1979-03-10 12:16:17.420 ,1,1,0.,24.0,0.,24.0
1979-03-10 12:16:41.420 ,5,1,0.,24.0,0.,24.0
1979-03-10 12:17:05.420 ,6,1,0.,24.0,0.,24.0
1979-03-10 12:17:29.420 ,2,1,0.,24.0,0.,24.0
1979-03-10 12:17:53.420 ,1,1,0.,24.0,0.,24.0
1979-03-10 12:18:17.420 ,5,1,0.,24.0,0.,24.0
1979-03-10 12:18:41.420 ,6,1,0.,24.0,0.,24.0
1979-03-10 12:19:05.420 ,2,1,0.,24.0,0.,24.0
1979-03-10 12:19:29.420 ,1,1,0.,24.0,0.,24.0
1979-03-10 12:19:53.420 ,5,1,0.,24.0,0.,24.0
1979-03-10 12:20:17.420 ,6,1,0.,24.0,0.,24.0
1979-03-10 12:20:41.420 ,2,1,0.,24.0,0.,24.0
1979-03-10 12:21:05.420 ,1,1,0.,24.0,0.,24.0
1979-03-10 12:21:29.420 ,5,1,0.,24.0,0.,24.0
1979-03-10 12:21:53.420 ,6,1,0.,24.0,0.,24.0
1979-03-10 12:22:17.420 ,2,1,0.,24.0,0.,24.0
1979-03-10 12:22:41.420 ,1,1,0.,24.0,0.,24.0
1979-03-10 12:23:05.420 ,5,1,0.,24.0,0.,24.0
1979-03-10 12:23:29.420 ,6,1,0.,24.0,0.,24.0
1979-03-10 12:23:53.420 ,2,1,0.,24.0,0.,24.0
1979-03-10 12:24:17.420 ,0,0,0.,24.0,0.,24.0
1979-03-10 12:24:41.420 ,0,1,0.,24.0,0.,24.0
1979-03-10 12:25:05.420 ,1,1,0.,24.0,0.,24.0
1979-03-10 12:25:29.420 ,2,1,0.,24.0,0.,24.0
1979-03-10 12:25:53.420 ,3,1,0.,24.0,0.,24.0
1979-03-10 12:26:17.420 ,4,1,0.,24.0,0.,24.0
1979-03-10 12:26:41.420 ,5,1,0.,24.0,0.,24.0
1979-03-10 12:27:05.420 ,6,1,0.,24.0,0.,24.0
1979-03-10 12:27:29.420 ,7,1,0.,24.0,0.,24.0
1979-03-10 12:27:53.420 ,7,1,0.,24.0,0.,24.0
1979-03-10 12:28:17.420 ,6,1,0.,24.0,0.,24.0
1979-03-10 12:28:41.420 ,5,1,0.,24.0,0.,24.0
1979-03-10 12:29:05.420 ,4,1,0.,24.0,0.,24.0
1979-03-10 12:29:29.420 ,3,1,0.,24.0,0.,24.0
1979-03-10 12:29:53.420 ,2,1,0.,24.0,0.,24.0
1979-03-10 12:30:17.420 ,1,1,0.,24.0,0.,24.0
1979-03-10 12:30:41.420 ,0,1,0.,24.0,0.,24.0
1979-03-10 12:31:05.420 ,0,1,0.,24.0,0.,24.0
1979-03-10 12:31:29.420 ,1,1,0.,24.0,0.,24.0
1979-03-10 12:31:53.420 ,2,1,0.,24.0,0.,24.0
1979-03-10 12:32:17.420 ,3,1,0.,24.0,0.,24.0
1979-03-10 12:32:41.420 ,4,1,0.,24.0,0.,24.0
1979-03-10 12:33:05.420 ,5,1,0.,24.0,0.,24.0
1979-03-10 12:33:29.420 ,6,1,0.,24.0,0.,24.0
1979-03-10 12:33:53.420 ,7,1,0.,24.0,0.,24.0
1979-03-10 12:34:17.420 ,7,1,0.,24.0,0.,24.0
1979-03-10 12:34:41.420 ,6,1,0.,24.0,0.,24.0
1979-03-10 12:35:05.420 ,5,1,0.,24.0,0.,24.0
1979-03-10 12:35:29.420 ,4,1,0.,24.0,0.,24.0
1979-03-10 12:35:53.420 ,3,1,0.,24.0,0.,24.0
1979-03-10 12:36:17.420 ,2,1,0.,24.0,0.,24.0
1979-03-10 12:36:41.420 ,1,1,0.,24.0,0.,24.0
1979-03-10 12:37:05.420 ,0,1,0.,24.0,0.,24.0
1979-03-10 12:37:29.420 ,0,1,0.,24.0,0.,24.0
1979-03-10 12:37:53.420 ,1,1,0.,24.0,0.,24.0
1979-03-10 12:38:17.420 ,2,1,0.,24.0,0.,24.0
1979-03-10 12:38:41.420 ,3,1,0.,24.0,0.,24.0
1979-03-10 12:39:05.420 ,4,1,0.,24.0,0.,24.0
1979-03-10 12:39:29.420 ,5,1,0.,24.0,0.,24.0
1979-03-10 12:39:53.420 ,6,1,0.,24.0,0.,24.0
1979-03-10 12:40:17.420 ,7,1,0.,24.0,0.,24.0
1979-03-10 12:40:41.420 ,7,1,0.,24.0,0.,24.0
1979-03-10 12:41:05.420 ,6,1,0.,24.0,0.,24.0
1979-03-10 12:41:29.420 ,5,1,0.,24.0,0.,24.0
1979-03-10 12:41:53.420 ,4,1,0.,24.0,0.,24.0
1979-03-10 12:42:17.420 ,3,1,0.,24.0,0.,24.0
1979-03-10 12:42:41.420 ,2,1,0.,24.0,0.,24.0
1979-03-10 12:43:05.420 ,1,1,0.,24.0,0.,24.0
1979-03-10 12:43:29.420 ,0,1,0.,24.0,0.,24.0
1979-03-10 12:43:53.420 ,0,1,0.,24.0,0.,24.0
1979-03-10 12:44:17.420 ,1,1,0.,24.0,0.,24.0
1979-03-10 12:44:41.420 ,2,1,0.,24.0,0.,24.0
1979-03-10 12:45:05.420 ,3,1,0.,24.0,0.,24.0
1979-03-10 12:45:29.420 ,4,1,0.,24.0,0.,24.0
1979-03-10 12:45:53.420 ,5,1,0.,24.0,0.,24.0
1979-03-10 12:46:17.420 ,6,1,0.,24.0,0.,24.0
1979-03-10 12:46:41.420 ,7,1,0.,24.0,0.,24.0
1979-03-10 12:47:05.420 ,7,1,0.,24.0,0.,24.0
1979-03-10 12:47:29.420 ,6,1,0.,24.0,0.,24.0
1979-03-10 12:47:53.420 ,5,1,0.,24.0,0.,24.0
1979-03-10 12:48:17.420 ,4,1,0.,24.0,0.,24.0
1979-03-10 12:48:41.420 ,3,1,0.,24.0,0.,24.0
1979-03-10 12:49:05.420 ,2,1,0.,24.0,0.,24.0
1979-03-10 12:49:29.420 ,1,1,0.,24.0,0.,24.0
1979-03-10 12:49:53.420 ,0,1,0.,24.0,0.,24.0
1979-03-10 12:50:17.420 ,0,1,0.,24.0,0.,24.0
1979-03-10 12:50:41.420 ,1,1,0.,24.0,0.,24.0
1979-03-10 12:51:05.420 ,2,1,0.,24.0,0.,24.0
1979-03-10 12:51:29.420 ,3,1,0.,24.0,0.,24.0
1979-03-10 12:51:53.420 ,4,1,0.,24.0,0.,24.0
1979-03-10 12:52:17.420 ,5,1,0.,24.0,0.,24.0
1979-03-10 12:52:41.420 ,6,1,0.,24.0,0.,24.0
1979-03-10 12:53:05.420 ,7,1,0.,24.0,0.,24.0
1979-03-10 12:53:29.420 ,7,1,0.,24.0,0.,24.0
1979-03-10 12:53:53.420 ,6,1,0.,24.0,0.,24.0
1979-03-10 12:54:17.420 ,5,1,0.,24.0,0.,24.0
1979-03-10 12:54:41.420 ,4,1,0.,24.0,0.,24.0
1979-03-10 12:55:05.420 ,3,1,0.,24.0,0.,24.0
1979-03-10 12:55:29.420 ,2,1,0.,24.0,0.,24.0
1979-03-10 12:55:53.420 ,1,1,0.,24.0,0.,24.0
1979-03-10 12:56:17.420 ,0,1,0.,24.0,0.,24.0
1979-03-10 12:56:41.420 ,0,1,0.,24.0,0.,24.0
1979-03-10 12:57:05.420 ,1,1,0.,24.0,0.,24.0
1979-03-10 12:57:29.420 ,2,1,0.,24.0,0.,24.0
1979-03-10 12:57:53.420 ,3,1,0.,24.0,0.,24.0
1979-03-10 12:58:17.420 ,4,1,0.,24.0,0.,24.0
1979-03-10 12:58:41.420 ,5,1,0.,24.0,0.,24.0
1979-03-10 12:59:05.420 ,6,1,0.,24.0,0.,24.0
1979-03-10 12:59:29.420 ,7,1,0.,24.0,0.,24.0
1979-03-10 12:59:53.420 ,7,1,0.,24.0,0.,24.0
1979-03-10 13:00:17.420 ,6,1,0.,24.0,0.,24.0
1979-03-10 13:00:41.420 ,5,1,0.,24.0,0.,24.0
1979-03-10 13:01:05.420 ,4,1,0.,24.0,0.,24.0
1979-03-10 13:01:29.420 ,3,1,0.,24.0,0.,24.0
1979-03-10 13:01:53.420 ,2,1,0.,24.0,0.,24.0
1979-03-10 13:02:17.420 ,1,1,0.,24.0,0.,24.0
1979-03-10 13:02:41.420 ,0,1,0.,24.0,0.,24.0
1979-03-10 13:03:05.420 ,0,1,0.,24.0,0.,24.0
1979-03-10 13:03:29.420 ,1,1,0.,24.0,0.,24.0
1979-03-10 13:03:53.420 ,2,1,0.,24.0,0.,24.0
1979-03-10 13:04:17.420 ,3,1,0.,24.0,0.,24.0
1979-03-10 13:04:41.420 ,4,1,0.,24.0,0.,24.0
1979-03-10 13:05:05.420 ,5,1,0.,24.0,0.,24.0
1979-03-10 13:05:29.420 ,6,1,0.,24.0,0.,24.0
1979-03-10 13:05:53.420 ,7,1,0.,24.0,0.,24.0
1979-03-10 13:06:17.420 ,7,1,0.,24.0,0.,24.0
1979-03-10 13:06:41.420 ,6,1,0.,24.0,0.,24.0
1979-03-10 13:07:05.420 ,5,1,0.,24.0,0.,24.0
1979-03-10 13:07:29.420 ,4,1,0.,24.0,0.,24.0
1979-03-10 13:07:53.420 ,3,1,0.,24.0,0.,24.0
1979-03-10 13:08:17.420 ,2,1,0.,24.0,0.,24.0
1979-03-10 13:08:41.420 ,1,1,0.,24.0,0.,24.0
1979-03-10 13:09:05.420 ,0,1,0.,24.0,0.,24.0
1979-03-10 13:09:29.420 ,0,1,0.,24.0,0.,24.0
1979-03-10 13:09:53.420 ,1,1,0.,24.0,0.,24.0
1979-03-10 13:10:17.420 ,2,1,0.,24.0,0.,24.0
1979-03-10 13:10:41.420 ,3,1,0.,24.0,0.,24.0
1979-03-10 13:11:05.420 ,4,1,0.,24.0,0.,24.0
1979-03-10 13:11:29.420 ,5,1,0.,24.0,0.,24.0
1979-03-10 13:11:53.420 ,6,1,0.,24.0,0.,24.0
1979-03-10 13:12:17.420 ,7,1,0.,24.0,0.,24.0
1979-03-10 13:12:41.420 ,7,1,0.,24.0,0.,24.0
1979-03-10 13:13:05.420 ,6,1,0.,24.0,0.,24.0
1979-03-10 13:13:29.420 ,5,1,0.,24.0,0.,24.0
1979-03-10 13:13:53.420 ,4,1,0.,24.0,0.,24.0
1979-03-10 13:14:17.420 ,3,1,0.,24.0,0.,24.0
1979-03-10 13:14:41.420 ,2,1,0.,24.0,0.,24.0
1979-03-10 13:15:05.420 ,1,1,0.,24.0,0.,24.0
1979-03-10 13:15:29.420 ,0,1,0.,24.0,0.,24.0
1979-03-10 13:15:53.420 ,0,1,0.,24.0,0.,24.0
1979-03-10 13:16:17.420 ,1,1,0.,24.0,0.,24.0
1979-03-10 13:16:41.420 ,2,1,0.,24.0,0.,24.0
1979-03-10 13:17:05.420 ,3,1,0.,24.0,0.,24.0
1979-03-10 13:17:29.420 ,4,1,0.,24.0,0.,24.0
1979-03-10 13:17:53.420 ,5,1,0.,24.0,0.,24.0
1979-03-10 13:18:17.420 ,6,1,0.,24.0,0.,24.0
1979-03-10 13:18:41.420 ,7,1,0.,24.0,0.,24.0
1979-03-10 13:19:05.420 ,7,1,0.,24.0,0.,24.0
1979-03-10 13:19:29.420 ,6,1,0.,24.0,0.,24.0
1979-03-10 13:19:53.420 ,5,1,0.,24.0,0.,24.0
1979-03-10 13:20:17.420 ,4,1,0.,24.0,0.,24.0
1979-03-10 13:20:41.420 ,3,1,0.,24.0,0.,24.0
1979-03-10 13:21:05.420 ,2,1,0.,24.0,0.,24.0
1979-03-10 13:21:29.420 ,1,1,0.,24.0,0.,24.0
1979-03-10 13:21:53.420 ,0,1,0.,24.0,0.,24.0
1979-03-10 13:22:17.420 ,0,1,0.,24.0,0.,24.0
1979-03-10 13:22:41.420 ,1,1,0.,24.0,0.,24.0
1979-03-10 13:23:05.420 ,2,1,0.,24.0,0.,24.0
1979-03-10 13:23:29.420 ,3,1,0.,24.0,0.,24.0
1979-03-10 13:23:53.420 ,4,1,0.,24.0,0.,24.0
1979-03-10 13:24:17.420 ,5,1,0.,24.0,0.,24.0
1979-03-10 13:24:41.420 ,6,1,0.,24.0,0.,24.0
1979-03-10 13:25:05.420 ,7,1,0.,24.0,0.,24.0
1979-03-10 13:25:29.420 ,7,1,0.,24.0,0.,24.0
1979-03-10 13:25:53.420 ,6,1,0.,24.0,0.,24.0
1979-03-10 13:26:17.420 ,5,1,0.,24.0,0.,24.0
1979-03-10 13:26:41.420 ,4,1,0.,24.0,0.,24.0
1979-03-10 13:27:05.420 ,3,1,0.,24.0,0.,24.0
1979-03-10 13:27:29.420 ,2,1,0.,24.0,0.,24.0
1979-03-10 13:27:53.420 ,1,1,0.,24.0,0.,24.0
1979-03-10 13:28:17.420 ,0,1,0.,24.0,0.,24.0
1979-03-10 13:28:41.420 ,0,1,0.,24.0,0.,24.0
1979-03-10 13:29:05.420 ,1,1,0.,24.0,0.,24.0
1979-03-10 13:29:29.420 ,2,1,0.,24.0,0.,24.0
1979-03-10 13:29:53.420 ,3,1,0.,24.0,0.,24.0
1979-03-10 13:30:17.420 ,4,1,0.,24.0,0.,24.0
1979-03-10 13:30:41.420 ,5,1,0.,24.0,0.,24.0
1979-03-10 13:31:05.420 ,6,1,0.,24.0,0.,24.0
1979-03-10 13:31:29.420 ,7,1,0.,24.0,0.,24.0
1979-03-10 13:31:53.420 ,7,1,0.,24.0,0.,24.0
1979-03-10 13:32:17.420 ,6,1,0.,24.0,0.,24.0
1979-03-10 13:32:41.420 ,5,1,0.,24.0,0.,24.0
1979-03-10 13:33:05.420 ,4,1,0.,24.0,0.,24.0
1979-03-10 13:33:29.420 ,3,1,0.,24.0,0.,24.0
1979-03-10 13:33:53.420 ,2,1,0.,24.0,0.,24.0
1979-03-10 13:34:17.420 ,1,1,0.,24.0,0.,24.0
1979-03-10 13:34:41.420 ,0,1,0.,24.0,0.,24.0
1979-03-10 13:35:05.420 ,0,1,0.,24.0,0.,24.0
1979-03-10 13:35:29.420 ,1,1,0.,24.0,0.,24.0
1979-03-10 13:35:53.420 ,2,1,0.,24.0,0.,24.0
1979-03-10 13:36:17.420 ,3,1,0.,24.0,0.,24.0
1979-03-10 13:36:41.420 ,4,1,0.,24.0,0.,24.0
1979-03-10 13:37:05.420 ,5,1,0.,24.0,0.,24.0
1979-03-10 13:37:29.420 ,6,1,0.,24.0,0.,24.0
1979-03-10 13:37:53.420 ,7,1,0.,24.0,0.,24.0
1979-03-10 13:38:17.420 ,7,1,0.,24.0,0.,24.0
1979-03-10 13:38:41.420 ,6,1,0.,24.0,0.,24.0
1979-03-10 13:39:05.420 ,5,1,0.,24.0,0.,24.0
1979-03-10 13:39:29.420 ,4,1,0.,24.0,0.,24.0
1979-03-10 13:39:53.420 ,3,1,0.,24.0,0.,24.0
1979-03-10 13:40:17.420 ,2,1,0.,24.0,0.,24.0
1979-03-10 13:40:41.420 ,1,1,0.,24.0,0.,24.0
1979-03-10 13:41:05.420 ,0,1,0.,24.0,0.,24.0
1979-03-10 13:41:29.420 ,0,1,0.,24.0,0.,24.0
1979-03-10 13:41:53.420 ,1,1,0.,24.0,0.,24.0
1979-03-10 13:42:17.420 ,2,1,0.,24.0,0.,24.0
1979-03-10 13:42:41.420 ,3,1,0.,24.0,0.,24.0
1979-03-10 13:43:05.420 ,4,1,0.,24.0,0.,24.0
1979-03-10 13:43:29.420 ,5,1,0.,24.0,0.,24.0
1979-03-10 13:43:53.420 ,6,1,0.,24.0,0.,24.0
1979-03-10 13:44:17.420 ,7,1,0.,24.0,0.,24.0
1979-03-10 13:44:41.420 ,7,1,0.,24.0,0.,24.0
1979-03-10 13:45:05.420 ,6,1,0.,24.0,0.,24.0
1979-03-10 13:45:29.420 ,5,1,0.,24.0,0.,24.0
1979-03-10 13:45:53.420 ,4,1,0.,24.0,0.,24.0
1979-03-10 13:46:17.420 ,3,1,0.,24.0,0.,24.0
1979-03-10 13:46:41.420 ,2,1,0.,24.0,0.,24.0
1979-03-10 13:47:05.420 ,1,1,0.,24.0,0.,24.0
1979-03-10 13:47:29.420 ,0,1,0.,24.0,0.,24.0
1979-03-10 13:47:53.420 ,0,1,0.,24.0,0.,24.0
1979-03-10 13:48:17.420 ,1,1,0.,24.0,0.,24.0
1979-03-10 13:48:41.420 ,2,1,0.,24.0,0.,24.0
1979-03-10 13:49:05.420 ,3,1,0.,24.0,0.,24.0
1979-03-10 13:49:29.420 ,4,1,0.,24.0,0.,24.0
1979-03-10 13:49:53.420 ,5,1,0.,24.0,0.,24.0
1979-03-10 13:50:17.420 ,6,1,0.,24.0,0.,24.0
1979-03-10 13:50:41.420 ,7,1,0.,24.0,0.,24.0
1979-03-10 13:51:05.420 ,7,1,0.,24.0,0.,24.0
1979-03-10 13:51:29.420 ,6,1,0.,24.0,0.,24.0
1979-03-10 13:51:53.420 ,5,1,0.,24.0,0.,24.0
1979-03-10 13:52:17.420 ,4,1,0.,24.0,0.,24.0
1979-03-10 13:52:41.420 ,3,1,0.,24.0,0.,24.0
1979-03-10 13:53:05.420 ,2,1,0.,24.0,0.,24.0
1979-03-10 13:53:29.420 ,1,1,0.,24.0,0.,24.0
1979-03-10 13:53:53.420 ,0,1,0.,24.0,0.,24.0
1979-03-10 13:54:17.420 ,0,1,0.,24.0,0.,24.0
1979-03-10 13:54:41.420 ,1,1,0.,24.0,0.,24.0
1979-03-10 13:55:05.420 ,2,1,0.,24.0,0.,24.0
1979-03-10 13:55:29.420 ,3,1,0.,24.0,0.,24.0
1979-03-10 13:55:53.420 ,4,1,0.,24.0,0.,24.0
1979-03-10 13:56:17.420 ,5,1,0.,24.0,0.,24.0
1979-03-10 13:56:41.420 ,6,1,0.,24.0,0.,24.0
1979-03-10 13:57:05.420 ,7,1,0.,24.0,0.,24.0
1979-03-10 13:57:29.420 ,7,1,0.,24.0,0.,24.0
1979-03-10 13:57:53.420 ,6,1,0.,24.0,0.,24.0
1979-03-10 13:58:17.420 ,5,1,0.,24.0,0.,24.0
1979-03-10 13:58:41.420 ,4,1,0.,24.0,0.,24.0
1979-03-10 13:59:05.420 ,3,1,0.,24.0,0.,24.0
1979-03-10 13:59:29.420 ,2,1,0.,24.0,0.,24.0
1979-03-10 13:59:53.420 ,1,1,0.,24.0,0.,24.0
1979-03-10 14:00:17.420 ,0,1,0.,24.0,0.,24.0
1979-03-10 14:00:41.420 ,0,1,0.,24.0,0.,24.0
1979-03-10 14:01:05.420 ,1,1,0.,24.0,0.,24.0
1979-03-10 14:01:29.420 ,2,1,0.,24.0,0.,24.0
1979-03-10 14:01:53.420 ,3,1,0.,24.0,0.,24.0
1979-03-10 14:02:17.420 ,4,1,0.,24.0,0.,24.0
1979-03-10 14:02:41.420 ,5,1,0.,24.0,0.,24.0
1979-03-10 14:03:05.420 ,6,1,0.,24.0,0.,24.0
1979-03-10 14:03:29.420 ,7,1,0.,24.0,0.,24.0
1979-03-10 14:03:53.420 ,7,1,0.,24.0,0.,24.0
1979-03-10 14:04:17.420 ,0,0,,0,,0
1979-03-10 14:04:41.420 ,0,0,,0,,0
1979-03-10 14:05:26.430 ,0,0,0.,24.0,0.,24.0
1979-03-10 14:05:29.430 ,3,1,0.,24.0,0.,24.0
1979-03-10 14:05:53.430 ,2,1,0.,24.0,0.,24.0
1979-03-10 14:06:17.430 ,1,1,0.,24.0,0.,24.0
1979-03-10 14:06:41.430 ,0,1,0.,24.0,0.,24.0
1979-03-10 14:07:05.420 ,0,1,0.,24.0,0.,24.0
1979-03-10 14:07:29.430 ,1,1,0.,24.0,0.,24.0
1979-03-10 14:07:53.430 ,2,1,0.,24.0,0.,24.0
1979-03-10 14:08:17.420 ,3,1,0.,24.0,0.,24.0
1979-03-10 14:08:41.420 ,4,1,0.,24.0,0.,24.0
1979-03-10 14:09:05.430 ,5,1,0.,24.0,0.,24.0
1979-03-10 14:09:29.430 ,6,1,0.,24.0,0.,24.0
1979-03-10 14:09:53.430 ,7,1,0.,24.0,0.,24.0
1979-03-10 14:10:17.430 ,7,1,0.,24.0,0.,24.0
1979-03-10 14:10:41.430 ,6,1,0.,24.0,0.,24.0
1979-03-10 14:11:05.430 ,5,1,0.,24.0,0.,24.0
1979-03-10 14:11:29.430 ,4,1,0.,24.0,0.,24.0
1979-03-10 14:11:53.430 ,3,1,0.,24.0,0.,24.0
1979-03-10 14:12:17.430 ,2,1,0.,24.0,0.,24.0
1979-03-10 14:12:41.430 ,1,1,0.,24.0,0.,24.0
1979-03-10 14:13:05.430 ,0,1,0.,24.0,0.,24.0
1979-03-10 14:13:29.430 ,0,1,0.,24.0,0.,24.0
1979-03-10 14:13:53.430 ,1,1,0.,24.0,0.,24.0
1979-03-10 14:14:17.430 ,2,1,0.,24.0,0.,24.0
1979-03-10 14:14:41.430 ,3,1,0.,24.0,0.,24.0
1979-03-10 14:15:05.430 ,4,1,0.,24.0,0.,24.0
1979-03-10 14:15:29.430 ,5,1,0.,24.0,0.,24.0
1979-03-10 14:15:53.430 ,6,1,0.,24.0,0.,24.0
1979-03-10 14:16:17.430 ,7,1,0.,24.0,0.,24.0
1979-03-10 14:16:41.430 ,7,1,0.,24.0,0.,24.0
1979-03-10 14:17:05.430 ,6,1,0.,24.0,0.,24.0
1979-03-10 14:17:29.430 ,5,1,0.,24.0,0.,24.0
1979-03-10 14:17:53.430 ,4,1,0.,24.0,0.,24.0
1979-03-10 14:18:17.430 ,3,1,0.,24.0,0.,24.0
1979-03-10 14:18:41.430 ,2,1,0.,24.0,0.,24.0
1979-03-10 14:19:05.430 ,1,1,0.,24.0,0.,24.0
1979-03-10 14:19:29.430 ,0,1,0.,24.0,0.,24.0
1979-03-10 14:19:53.430 ,0,1,0.,24.0,0.,24.0
1979-03-10 14:20:17.430 ,1,1,0.,24.0,0.,24.0
1979-03-10 14:20:41.430 ,2,1,0.,24.0,0.,24.0
1979-03-10 14:21:05.430 ,3,1,0.,24.0,0.,24.0
1979-03-10 14:21:29.430 ,4,1,0.,24.0,0.,24.0
1979-03-10 14:21:53.430 ,5,1,0.,24.0,0.,24.0
1979-03-10 14:22:17.430 ,6,1,0.,24.0,0.,24.0
1979-03-10 14:22:41.430 ,7,1,0.,24.0,0.,24.0
1979-03-10 14:23:05.430 ,7,1,0.,24.0,0.,24.0
1979-03-10 14:23:29.430 ,6,1,0.,24.0,0.,24.0
1979-03-10 14:23:53.430 ,5,1,0.,24.0,0.,24.0
1979-03-10 14:24:17.430 ,4,1,0.,24.0,0.,24.0
1979-03-10 14:24:41.430 ,3,1,0.,24.0,0.,24.0
1979-03-10 14:25:05.430 ,2,1,0.,24.0,0.,24.0
1979-03-10 14:25:29.430 ,1,1,0.,24.0,0.,24.0
1979-03-10 14:25:53.430 ,0,1,0.,24.0,0.,24.0
1979-03-10 14:26:17.430 ,0,1,0.,24.0,0.,24.0
1979-03-10 14:26:41.430 ,1,1,0.,24.0,0.,24.0
1979-03-10 14:27:05.430 ,2,1,0.,24.0,0.,24.0
1979-03-10 14:27:29.430 ,3,1,0.,24.0,0.,24.0
1979-03-10 14:27:53.430 ,4,1,0.,24.0,0.,24.0
1979-03-10 14:28:17.430 ,5,1,0.,24.0,0.,24.0
1979-03-10 14:28:41.430 ,6,1,0.,24.0,0.,24.0
1979-03-10 14:29:05.430 ,7,1,0.,24.0,0.,24.0
1979-03-10 14:29:29.430 ,7,1,0.,24.0,0.,24.0
1979-03-10 14:29:53.430 ,6,1,0.,24.0,0.,24.0
1979-03-10 14:30:17.430 ,5,1,0.,24.0,0.,24.0
1979-03-10 14:30:41.430 ,4,1,0.,24.0,0.,24.0
1979-03-10 14:31:05.430 ,3,1,0.,24.0,0.,24.0
1979-03-10 14:31:29.430 ,2,1,0.,24.0,0.,24.0
1979-03-10 14:31:53.430 ,1,1,0.,24.0,0.,24.0
1979-03-10 14:32:17.430 ,0,1,0.,24.0,0.,24.0
1979-03-10 14:32:41.430 ,0,1,0.,24.0,0.,24.0
1979-03-10 14:33:05.430 ,0,0,,0,,0
1979-03-10 14:33:29.430 ,0,1,0.,24.0,0.,24.0
1979-03-10 14:33:53.430 ,3,1,0.,24.0,0.,24.0
1979-03-10 14:34:17.430 ,4,1,0.,24.0,0.,24.0
1979-03-10 14:34:41.420 ,5,1,0.,24.0,0.,24.0
1979-03-10 14:35:05.420 ,6,1,0.,24.0,0.,24.0
1979-03-10 14:35:29.420 ,7,1,0.,24.0,0.,24.0
1979-03-10 14:35:53.420 ,0,0,0.,24.0,0.,24.0
1979-03-10 14:36:17.420 ,6,1,0.,24.0,0.,24.0
1979-03-10 14:36:41.420 ,0,0,,0,,0
1979-03-10 14:37:05.420 ,0,0,0.,24.0,0.,24.0
1979-03-10 14:37:29.420 ,3,1,0.,24.0,0.,24.0
1979-03-10 14:37:53.420 ,2,1,0.,24.0,0.,24.0
1979-03-10 14:38:17.420 ,1,1,0.,24.0,0.,24.0
1979-03-10 14:38:41.420 ,0,1,0.,24.0,0.,24.0
1979-03-10 14:39:05.420 ,0,1,0.,24.0,0.,24.0
1979-03-10 14:39:29.420 ,1,1,0.,24.0,0.,24.0
1979-03-10 14:39:53.420 ,2,1,0.,24.0,0.,24.0
1979-03-10 14:40:17.420 ,3,1,0.,24.0,0.,24.0
1979-03-10 14:40:41.420 ,4,1,0.,24.0,0.,24.0
1979-03-10 14:41:05.420 ,5,1,0.,24.0,0.,24.0
1979-03-10 14:41:29.420 ,6,1,0.,24.0,0.,24.0
1979-03-10 14:41:53.420 ,7,1,0.,24.0,0.,24.0
1979-03-10 14:42:17.420 ,7,1,0.,24.0,0.,24.0
